Time,TemperatureF,DewpointF,PressureIn,WindDirection,WindDirectionDegrees,WindSpeedMPH,WindSpeedGustMPH,Humidity,HourlyPrecipIn,Conditions,Clouds,dailyrainin,SoftwareType,DateUTC
2013-12-04 00:02:00,-999.0,-99.9,-100.00,East,95,11.0,13.0,-999,-99.99,,,-99.99,,2013-12-04 05:02:00,
2013-12-04 00:33:00,-999.0,-99.9,-100.00,East,95,10.0,13.0,-999,-99.99,,,-99.99,,2013-12-04 05:33:00,
2013-12-04 00:53:00,-999.0,-99.9,-100.00,East,92,12.0,14.0,-999,-99.99,,,-99.99,,2013-12-04 05:53:00,
2013-12-04 01:23:00,-999.0,-99.9,-100.00,East,92,11.0,15.0,-999,-99.99,,,-99.99,,2013-12-04 06:23:00,
2013-12-04 01:32:00,-999.0,-99.9,-100.00,East,80,13.0,14.0,-999,-99.99,,,-99.99,,2013-12-04 06:32:00,
2013-12-04 01:42:00,-999.0,-99.9,-100.00,East,81,11.0,14.0,-999,-99.99,,,-99.99,,2013-12-04 06:42:00,
2013-12-04 01:52:00,-999.0,-99.9,-100.00,ENE,63,15.0,17.0,-999,-99.99,,,-99.99,,2013-12-04 06:52:00,
2013-12-04 02:02:00,-999.0,-99.9,-100.00,ENE,66,15.0,20.0,-999,-99.99,,,-99.99,,2013-12-04 07:02:00,
2013-12-04 02:12:00,-999.0,-99.9,-100.00,ENE,62,15.0,18.0,-999,-99.99,,,-99.99,,2013-12-04 07:12:00,
2013-12-04 02:22:00,-999.0,-99.9,-100.00,ENE,67,18.0,21.0,-999,-99.99,,,-99.99,,2013-12-04 07:22:00,
2013-12-04 02:32:00,-999.0,-99.9,-100.00,ENE,70,18.0,21.0,-999,-99.99,,,-99.99,,2013-12-04 07:32:00,
2013-12-04 02:42:00,-999.0,-99.9,-100.00,ENE,70,17.0,22.0,-999,-99.99,,,-99.99,,2013-12-04 07:42:00,
2013-12-04 02:52:00,-999.0,-99.9,-100.00,ENE,67,17.0,23.0,-999,-99.99,,,-99.99,,2013-12-04 07:52:00,
2013-12-04 03:02:00,-999.0,-99.9,-100.00,ENE,67,17.0,22.0,-999,-99.99,,,-99.99,,2013-12-04 08:02:00,
2013-12-04 03:12:00,-999.0,-99.9,-100.00,ENE,64,20.0,24.0,-999,-99.99,,,-99.99,,2013-12-04 08:12:00,
2013-12-04 03:32:00,-999.0,-99.9,-100.00,ENE,68,18.0,21.0,-999,-99.99,,,-99.99,,2013-12-04 08:32:00,
2013-12-04 03:53:00,-999.0,-99.9,-100.00,ENE,67,20.0,25.0,-999,-99.99,,,-99.99,,2013-12-04 08:53:00,
2013-12-04 04:02:00,-999.0,-99.9,-100.00,ENE,69,20.0,25.0,-999,-99.99,,,-99.99,,2013-12-04 09:02:00,
2013-12-04 04:12:00,-999.0,-99.9,-100.00,ENE,65,20.0,23.0,-999,-99.99,,,-99.99,,2013-12-04 09:12:00,
2013-12-04 04:22:00,-999.0,-99.9,-100.00,ENE,74,14.0,19.0,-999,-99.99,,,-99.99,,2013-12-04 09:22:00,
2013-12-04 04:33:00,-999.0,-99.9,-100.00,ENE,70,17.0,20.0,-999,-99.99,,,-99.99,,2013-12-04 09:33:00,
2013-12-04 04:43:00,26.0,-99.9,29.95,ENE,70,17.0,20.0,-999,-99.99,,,-99.99,,2013-12-04 09:43:00,
2013-12-04 05:12:00,-999.0,-99.9,-100.00,ENE,69,20.0,22.0,-999,-99.99,,,-99.99,,2013-12-04 10:12:00,
2013-12-04 05:23:00,-999.0,-99.9,-100.00,ENE,61,18.0,21.0,-999,-99.99,,,-99.99,,2013-12-04 10:23:00,
2013-12-04 05:34:00,-999.0,-99.9,-100.00,ENE,58,15.0,22.0,-999,-99.99,,,-99.99,,2013-12-04 10:34:00,
2013-12-04 06:02:00,-999.0,-99.9,-100.00,ENE,60,18.0,23.0,-999,-99.99,,,-99.99,,2013-12-04 11:02:00,
2013-12-04 06:12:00,-999.0,-99.9,-100.00,ENE,59,17.0,20.0,-999,-99.99,,,-99.99,,2013-12-04 11:12:00,
2013-12-04 06:23:00,-999.0,-99.9,-100.00,ENE,64,15.0,20.0,-999,-99.99,,,-99.99,,2013-12-04 11:23:00,
2013-12-04 06:42:00,-999.0,-99.9,-100.00,ENE,64,16.0,21.0,-999,-99.99,,,-99.99,,2013-12-04 11:42:00,
2013-12-04 07:12:00,-999.0,-99.9,-100.00,ENE,68,17.0,25.0,-999,-99.99,,,-99.99,,2013-12-04 12:12:00,
2013-12-04 07:22:00,-999.0,-99.9,-100.00,ENE,72,18.0,22.0,-999,-99.99,,,-99.99,,2013-12-04 12:22:00,
2013-12-04 07:52:00,-999.0,-99.9,-100.00,ENE,74,17.0,23.0,-999,-99.99,,,-99.99,,2013-12-04 12:52:00,
2013-12-04 08:02:00,-999.0,-99.9,-100.00,ENE,64,19.0,23.0,-999,-99.99,,,-99.99,,2013-12-04 13:02:00,
2013-12-04 08:12:00,-999.0,-99.9,-100.00,ENE,64,16.0,21.0,-999,-99.99,,,-99.99,,2013-12-04 13:12:00,
2013-12-04 08:22:00,-999.0,-99.9,-100.00,ENE,69,15.0,21.0,-999,-99.99,,,-99.99,,2013-12-04 13:22:00,
2013-12-04 08:52:00,26.0,-99.9,29.97,ENE,72,16.0,22.0,-999,-99.99,,,-99.99,,2013-12-04 13:52:00,
2013-12-04 09:02:00,-999.0,-99.9,-100.00,ENE,75,17.0,24.0,-999,-99.99,,,-99.99,,2013-12-04 14:02:00,
2013-12-04 09:12:00,-999.0,-99.9,-100.00,ENE,72,20.0,24.0,-999,-99.99,,,-99.99,,2013-12-04 14:12:00,
2013-12-04 09:22:00,-999.0,-99.9,-100.00,ENE,72,16.0,22.0,-999,-99.99,,,-99.99,,2013-12-04 14:22:00,
2013-12-04 09:32:00,-999.0,-99.9,-100.00,ENE,69,18.0,22.0,-999,-99.99,,,-99.99,,2013-12-04 14:32:00,
2013-12-04 09:42:00,-999.0,-99.9,-100.00,ENE,74,14.0,18.0,-999,-99.99,,,-99.99,,2013-12-04 14:42:00,
2013-12-04 10:02:00,-999.0,-99.9,-100.00,East,80,19.0,23.0,-999,-99.99,,,-99.99,,2013-12-04 15:02:00,
2013-12-04 10:12:00,-999.0,-99.9,-100.00,East,86,20.0,27.0,-999,-99.99,,,-99.99,,2013-12-04 15:12:00,
2013-12-04 10:33:00,-999.0,-99.9,-100.00,East,88,19.0,23.0,-999,-99.99,,,-99.99,,2013-12-04 15:33:00,
2013-12-04 10:54:00,-999.0,-99.9,-100.00,East,85,21.0,26.0,-999,-99.99,,,-99.99,,2013-12-04 15:54:00,
2013-12-04 11:23:00,-999.0,-99.9,-100.00,East,88,18.0,27.0,-999,-99.99,,,-99.99,,2013-12-04 16:23:00,
2013-12-04 11:34:00,-999.0,-99.9,-100.00,East,92,21.0,26.0,-999,-99.99,,,-99.99,,2013-12-04 16:34:00,
2013-12-04 11:53:00,-999.0,-99.9,-100.00,East,89,17.0,22.0,-999,-99.99,,,-99.99,,2013-12-04 16:53:00,
2013-12-04 12:22:00,-999.0,-99.9,-100.00,East,97,16.0,20.0,-999,-99.99,,,-99.99,,2013-12-04 17:22:00,
2013-12-04 12:33:00,-999.0,-99.9,-100.00,East,98,15.0,22.0,-999,-99.99,,,-99.99,,2013-12-04 17:33:00,
2013-12-04 12:53:00,-999.0,-99.9,-100.00,East,91,15.0,20.0,-999,-99.99,,,-99.99,,2013-12-04 17:53:00,
2013-12-04 13:13:00,-999.0,-99.9,-100.00,East,87,17.0,21.0,-999,-99.99,,,-99.99,,2013-12-04 18:13:00,
2013-12-04 13:22:00,-999.0,-99.9,-100.00,East,91,14.0,19.0,-999,-99.99,,,-99.99,,2013-12-04 18:22:00,
2013-12-04 13:42:00,-999.0,-99.9,-100.00,East,87,16.0,20.0,-999,-99.99,,,-99.99,,2013-12-04 18:42:00,
2013-12-04 13:52:00,-999.0,-99.9,-100.00,East,84,16.0,21.0,-999,-99.99,,,-99.99,,2013-12-04 18:52:00,
2013-12-04 14:12:00,-999.0,-99.9,-100.00,East,87,17.0,21.0,-999,-99.99,,,-99.99,,2013-12-04 19:12:00,
2013-12-04 14:22:00,-999.0,-99.9,-100.00,East,85,18.0,26.0,-999,-99.99,,,-99.99,,2013-12-04 19:22:00,
2013-12-04 14:32:00,-999.0,-99.9,-100.00,East,90,15.0,20.0,-999,-99.99,,,-99.99,,2013-12-04 19:32:00,
2013-12-04 14:42:00,-999.0,-99.9,-100.00,East,82,15.0,19.0,-999,-99.99,,,-99.99,,2013-12-04 19:42:00,
2013-12-04 14:52:00,-999.0,-99.9,-100.00,East,83,20.0,23.0,-999,-99.99,,,-99.99,,2013-12-04 19:52:00,
2013-12-04 15:12:00,-999.0,-99.9,-100.00,East,86,17.0,22.0,-999,-99.99,,,-99.99,,2013-12-04 20:12:00,
2013-12-04 15:22:00,-999.0,-99.9,-100.00,East,84,14.0,17.0,-999,-99.99,,,-99.99,,2013-12-04 20:22:00,
2013-12-04 15:32:00,-999.0,-99.9,-100.00,East,85,15.0,17.0,-999,-99.99,,,-99.99,,2013-12-04 20:32:00,
2013-12-04 15:42:00,-999.0,-99.9,-100.00,East,85,17.0,20.0,-999,-99.99,,,-99.99,,2013-12-04 20:42:00,
2013-12-04 15:52:00,-999.0,-99.9,-100.00,ENE,75,11.0,20.0,-999,-99.99,,,-99.99,,2013-12-04 20:52:00,
2013-12-04 16:02:00,-999.0,-99.9,-100.00,ENE,77,13.0,17.0,-999,-99.99,,,-99.99,,2013-12-04 21:02:00,
2013-12-04 16:11:00,-999.0,-99.9,-100.00,ENE,74,12.0,17.0,-999,-99.99,,,-99.99,,2013-12-04 21:11:00,
2013-12-04 16:22:00,-999.0,-99.9,-100.00,East,79,15.0,17.0,-999,-99.99,,,-99.99,,2013-12-04 21:22:00,
2013-12-04 16:33:00,-999.0,-99.9,-100.00,East,80,11.0,22.0,-999,-99.99,,,-99.99,,2013-12-04 21:33:00,
2013-12-04 16:44:00,-999.0,-99.9,-100.00,East,81,15.0,18.0,-999,-99.99,,,-99.99,,2013-12-04 21:44:00,
2013-12-04 16:54:00,-999.0,-99.9,-100.00,East,80,13.0,20.0,-999,-99.99,,,-99.99,,2013-12-04 21:54:00,
2013-12-04 17:04:00,-999.0,-99.9,-100.00,East,93,16.0,23.0,-999,-99.99,,,-99.99,,2013-12-04 22:04:00,
2013-12-04 17:14:00,-999.0,-99.9,-100.00,East,86,15.0,20.0,-999,-99.99,,,-99.99,,2013-12-04 22:14:00,
2013-12-04 18:02:00,-999.0,-99.9,-100.00,East,90,17.0,24.0,-999,-99.99,,,-99.99,,2013-12-04 23:02:00,
2013-12-04 18:12:00,-999.0,-99.9,-100.00,East,88,16.0,22.0,-999,-99.99,,,-99.99,,2013-12-04 23:12:00,
2013-12-04 18:22:00,-999.0,-99.9,-100.00,East,90,19.0,23.0,-999,-99.99,,,-99.99,,2013-12-04 23:22:00,
2013-12-04 18:53:00,-999.0,-99.9,-100.00,East,91,18.0,24.0,-999,-99.99,,,-99.99,,2013-12-04 23:53:00,
2013-12-04 19:02:00,-999.0,-99.9,-100.00,East,95,13.0,21.0,-999,-99.99,,,-99.99,,2013-12-05 00:02:00,
2013-12-04 19:11:00,-999.0,-99.9,-100.00,East,93,18.0,25.0,-999,-99.99,,,-99.99,,2013-12-05 00:11:00,
2013-12-04 19:22:00,-999.0,-99.9,-100.00,East,94,14.0,21.0,-999,-99.99,,,-99.99,,2013-12-05 00:22:00,
2013-12-04 19:32:00,-999.0,-99.9,-100.00,East,91,15.0,23.0,-999,-99.99,,,-99.99,,2013-12-05 00:32:00,
2013-12-04 19:42:00,-999.0,-99.9,-100.00,East,91,16.0,21.0,-999,-99.99,,,-99.99,,2013-12-05 00:42:00,
2013-12-04 19:52:00,-999.0,-99.9,-100.00,East,101,18.0,24.0,-999,-99.99,,,-99.99,,2013-12-05 00:52:00,
2013-12-04 20:01:00,-999.0,-99.9,-100.00,East,89,22.0,27.0,-999,-99.99,,,-99.99,,2013-12-05 01:01:00,
2013-12-04 20:42:00,-999.0,-99.9,-100.00,ESE,106,23.0,29.0,-999,-99.99,,,-99.99,,2013-12-05 01:42:00,
2013-12-04 20:52:00,-999.0,-99.9,-100.00,ESE,118,20.0,26.0,-999,-99.99,,,-99.99,,2013-12-05 01:52:00,
2013-12-04 21:02:00,-999.0,-99.9,-100.00,ESE,116,19.0,26.0,-999,-99.99,,,-99.99,,2013-12-05 02:02:00,
2013-12-04 21:12:00,-999.0,-99.9,-100.00,ESE,115,20.0,26.0,-999,-99.99,,,-99.99,,2013-12-05 02:12:00,
2013-12-04 21:22:00,-999.0,-99.9,-100.00,ESE,114,23.0,29.0,-999,-99.99,,,-99.99,,2013-12-05 02:22:00,
2013-12-04 21:32:00,-999.0,-99.9,-100.00,ESE,115,21.0,26.0,-999,-99.99,,,-99.99,,2013-12-05 02:32:00,
2013-12-04 21:42:00,-999.0,-99.9,-100.00,ESE,115,21.0,26.0,-999,-99.99,,,-99.99,,2013-12-05 02:42:00,
2013-12-04 21:52:00,-999.0,-99.9,-100.00,ESE,109,19.0,31.0,-999,-99.99,,,-99.99,,2013-12-05 02:52:00,
2013-12-04 22:02:00,-999.0,-99.9,-100.00,ESE,117,19.0,28.0,-999,-99.99,,,-99.99,,2013-12-05 03:02:00,
2013-12-04 22:12:00,-999.0,-99.9,-100.00,ESE,116,18.0,62.0,-999,-99.99,,,-99.99,,2013-12-05 03:12:00,
2013-12-04 22:22:00,-999.0,-99.9,-100.00,ESE,109,23.0,30.0,-999,-99.99,,,-99.99,,2013-12-05 03:22:00,
2013-12-04 22:43:00,-999.0,-99.9,-100.00,ESE,119,23.0,30.0,-999,-99.99,,,-99.99,,2013-12-05 03:43:00,
2013-12-04 22:54:00,-999.0,-99.9,-100.00,SE,126,29.0,33.0,-999,-99.99,,,-99.99,,2013-12-05 03:54:00,
2013-12-04 23:04:00,-999.0,-99.9,-100.00,SE,133,24.0,38.0,-999,-99.99,,,-99.99,,2013-12-05 04:04:00,
2013-12-04 23:23:00,-999.0,-99.9,-100.00,SE,141,26.0,36.0,-999,-99.99,,,-99.99,,2013-12-05 04:23:00,
2013-12-04 23:34:00,-999.0,-99.9,-100.00,SE,140,23.0,34.0,-999,-99.99,,,-99.99,,2013-12-05 04:34:00,
2013-12-04 23:53:00,-999.0,-99.9,-100.00,SE,141,28.0,35.0,-999,-99.99,,,-99.99,,2013-12-05 04:53:00,